Location: George Washington National Forest Helicopter Landing Site
(38.6463°N, 79.0851°W)
Time: 02:34:30
(UTC-04:00)

Tiros 1 - Pass Details

Date: 27 August 2019
Orbit: 631 x 664 km, 48.4° (Epoch: 16 September)

Event Time Altitude Azimuth Distance (km) Brightness Sun altitude
Exits shadow 05:42:54 - 299° (WNW) 2,678 10.0 -11.6°
Reaches altitude 10° 05:44:36 10° 296° (WNW) 2,025 9.3 -11.3°
Maximum altitude 05:49:10 57° 218° (SW) 751 7.2 -10.4°
Drops below altitude 10° 05:53:46 10° 140° (SE) 2,036 10.0 -9.6°
Sets 05:56:08 0° 136° (SE) 2,949 10.9 -9.2°
